Location: Nebraska Star Party
(42.6000°N, 100.8833°W)
Time: 01:16:09
(UTC-05:00)

Amateur Radio Satellites - All Passes

Search period start: 23 March 2017 00:46
Search period end: 24 March 2017 00:46
Location: Nebraska Star Party, 42.6000°N, 100.8833°W

Satellite Date Start Highest point End Downlink Frequencies (MHz)
Time Altitude Azimuth
NANOSAT C BR1 23 Mar 00:59:47 01:03:32 30° 96° (E) 01:07:14 145.865
EO-79 23 Mar 01:01:31 01:05:25 34° 97° (E) 01:09:15 145.935-145.965
TIGRISAT 23 Mar 01:07:25 01:10:41 20° 295° (WNW) 01:13:53 435.000
SPROUT 23 Mar 01:09:50 01:14:07 77° 76° (ENE) 01:18:27 437.525
RS-15 23 Mar 01:14:22 01:25:04 38° 254° (WSW) 01:35:23 29.354- 29.394
UNISAT 6 23 Mar 01:16:46 01:19:26 16° 297° (WNW) 01:22:03 437.425
ISS 23 Mar 01:19:41 01:22:25 24° 343° (NNW) 01:25:10 437.550
FO-29 23 Mar 01:20:26 01:26:14 39° 294° (WNW) 01:31:26 435.910
DX 1 23 Mar 01:20:55 01:25:05 50° 72° (ENE) 01:29:19 434.975-435.025
POLYITAN 1 23 Mar 01:28:06 01:32:21 69° 102° (ESE) 01:36:32 437.675
VELOX 1 23 Mar 01:29:53 01:34:11 55° 259° (W) 01:38:32 145.980
AIST 2D 23 Mar 01:30:34 01:33:57 48° 286° (WNW) 01:37:19 435.315
QB50P2 23 Mar 01:32:29 01:36:46 84° 106° (ESE) 01:40:59 145.880/145.840
SO-50 23 Mar 01:36:59 01:41:30 78° 54° (NE) 01:46:00 436.795
ESTCUBE 1 23 Mar 01:37:32 01:40:18 16° 269° (W) 01:43:03 437.505/2401.250
Tancredo 1 23 Mar 01:38:46 01:41:10 19° 348° (NNW) 01:43:35 437.200
DUCHIFAT 1 23 Mar 01:51:15 01:55:30 79° 282° (WNW) 01:59:41 145.980
50 SAT 23 Mar 01:54:00 01:57:12 35° 262° (W) 02:00:25 437.505
BEESAT 3 23 Mar 02:07:08 02:10:01 19° 317° (NW) 02:12:56 437.485
UKube-1 23 Mar 02:09:27 02:13:43 68° 257° (WSW) 02:18:03 .
BEESAT 2 23 Mar 02:12:17 02:15:56 34° 311° (NW) 02:19:39 435.950
BEESAT 23 Mar 02:17:39 02:19:50 13° 60° (ENE) 02:22:01 436.000
BUGSAT 1 23 Mar 02:24:26 02:28:41 82° 103° (ESE) 02:32:50 437.445
ITUPSAT 1 23 Mar 02:30:02 02:33:06 17° 62° (ENE) 02:36:08 437.325
NANOSAT C BR1 23 Mar 02:35:41 02:39:07 24° 293° (WNW) 02:42:31 145.865
EO-79 23 Mar 02:37:43 02:40:59 22° 294° (WNW) 02:44:13 145.935-145.965
ISS 23 Mar 02:57:27 02:59:43 17° 3° (N) 03:02:00 437.550
Gurwin Techsat 1B 23 Mar 02:58:48 03:03:28 30° 95° (E) 03:08:06 435.225
DX 1 23 Mar 02:59:01 03:01:34 15° 268° (W) 03:04:08 434.975-435.025
POLYITAN 1 23 Mar 03:05:56 03:07:33 12° 299° (WNW) 03:09:09 437.675
MOZHAYETS 4 23 Mar 03:10:23 03:13:15 16° 63° (ENE) 03:16:05
Tancredo 1 23 Mar 03:15:56 03:18:11 17° 8° (N) 03:20:27 437.200
Oscar 19 23 Mar 03:17:11 03:22:22 77° 104° (ESE) 03:27:33 437.125/150
SO-50 23 Mar 03:19:44 03:21:19 12° 252° (WSW) 03:22:53 436.795
BEESAT 23 Mar 03:52:10 03:56:57 79° 256° (WSW) 04:01:46 436.000
BUGSAT 1 23 Mar 04:02:56 04:03:21 10° 300° (WNW) 04:03:46 437.445
ITUPSAT 1 23 Mar 04:05:42 04:10:27 59° 259° (W) 04:15:12 437.325
AO-7 23 Mar 04:10:15 04:16:41 24° 93° (E) 04:23:04 .
O/OREOS (USA 219) 23 Mar 04:26:43 04:31:20 65° 66° (ENE) 04:35:54 437.305
ISS 23 Mar 04:33:53 04:36:56 32° 23° (NNE) 04:39:57 437.550
Gurwin Techsat 1B 23 Mar 04:38:36 04:43:26 36° 293° (WNW) 04:48:15 435.225
MOZHAYETS 4 23 Mar 04:45:25 04:49:57 56° 260° (W) 04:54:29
Tancredo 1 23 Mar 04:51:49 04:54:56 44° 28° (NNE) 04:58:02 437.200
ITAMSAT 1 23 Mar 04:55:12 05:00:22 60° 101° (ESE) 05:05:29 435.822/435.867
KKS-1 23 Mar 04:56:14 05:00:28 44° 71° (ENE) 05:04:44 437.445
Oscar 19 23 Mar 04:58:12 05:01:03 15° 301° (WNW) 05:03:52 437.125/150
CUBESAT XI-V 23 Mar 05:26:39 05:31:11 65° 75° (ENE) 05:35:45 437.345
STARS 23 Mar 05:43:35 05:47:56 63° 73° (ENE) 05:52:21 437.465
M-CUBED/EXP-1 PRIME 23 Mar 05:51:43 05:54:13 18° 59° (ENE) 05:56:52 437.505
AO-7 23 Mar 06:01:53 06:10:10 75° 292° (WNW) 06:18:24 .
O/OREOS (USA 219) 23 Mar 06:08:04 06:10:08 13° 262° (W) 06:12:12 437.305
ISS 23 Mar 06:10:20 06:13:27 39° 221° (SW) 06:16:34 437.550
Tancredo 1 23 Mar 06:28:18 06:30:56 23° 225° (SW) 06:33:34 437.200
KKS-1 23 Mar 06:34:11 06:37:14 18° 267° (W) 06:40:19 437.445
ITAMSAT 1 23 Mar 06:35:47 06:39:21 19° 299° (WNW) 06:42:54 435.822/435.867
XW-2D 23 Mar 06:48:22 06:49:30 11° 90° (E) 06:50:38 145.860 - 145.880
XW-2B 23 Mar 06:53:42 06:55:23 13° 91° (E) 06:57:05 145.730 - 145.750
NUDT-PHONESAT 23 Mar 07:01:47 07:03:24 12° 91° (E) 07:05:01 437.300
XW-2C 23 Mar 07:03:01 07:05:30 17° 93° (E) 07:07:57 145.795 - 145.815
KAITUO 1B 23 Mar 07:03:46 07:05:38 13° 91° (E) 07:07:30 145.475/437.950
CUBESAT XI-V 23 Mar 07:06:59 07:09:00 13° 271° (W) 07:11:02 437.345
AO-85 23 Mar 07:18:40 07:22:27 45° 52° (NE) 07:26:19 145.980
STARS 23 Mar 07:22:47 07:24:42 12° 270° (W) 07:26:36 437.465
M-CUBED/EXP-1 PRIME 23 Mar 07:25:05 07:28:22 35° 258° (WSW) 07:31:57 437.505
DOVE 4 23 Mar 07:39:12 07:44:30 67° 101° (E) 07:49:44 437.250
LilacSat-2 23 Mar 07:51:04 07:54:51 69° 102° (ESE) 07:58:35 437.200
CUTE-I 23 Mar 07:55:44 08:01:03 59° 101° (E) 08:06:19 437.470
AO-7 23 Mar 07:56:22 08:01:35 19° 313° (NW) 08:06:48 .
XW-2F 23 Mar 07:56:49 08:00:34 76° 102° (ESE) 08:04:17 145.980 - 146.000
STRAND 1 23 Mar 07:57:59 08:03:03 61° 72° (ENE) 08:08:08 437.568
XW-2A 23 Mar 08:14:53 08:16:56 15° 93° (E) 08:18:57 145.665 - 145.685
HO-68 23 Mar 08:19:52 08:25:41 26° 93° (E) 08:31:28 435.675
XW-2D 23 Mar 08:20:21 08:24:00 50° 286° (WNW) 08:27:37 145.860 - 145.880
XW-2B 23 Mar 08:26:14 08:29:50 44° 287° (WNW) 08:33:23 145.730 - 145.750
NO-84 23 Mar 08:27:51 08:29:44 16° 129° (SE) 08:31:38 435.350 FM
NUDT-PHONESAT 23 Mar 08:34:03 08:37:34 42° 287° (WNW) 08:41:02 437.300
KAITUO 1B 23 Mar 08:36:23 08:39:52 40° 287° (WNW) 08:43:19 145.475/437.950
XW-2C 23 Mar 08:36:24 08:39:48 33° 289° (WNW) 08:43:09 145.795 - 145.815
YUBILEINY 23 Mar 08:41:53 08:50:10 50° 89° (E) 08:58:26 435.215
BEESAT 3 23 Mar 08:44:30 08:48:16 36° 50° (NE) 08:52:00 437.485
BEESAT 2 23 Mar 08:51:47 08:54:54 21° 44° (NE) 08:58:01 435.950
AO-85 23 Mar 09:00:01 09:02:30 16° 248° (WSW) 09:05:02 145.980
AAUSAT CUBESAT 2 23 Mar 09:01:54 09:04:22 15° 91° (E) 09:06:52 437.432
CUTE 1.7 + AOD 2 23 Mar 09:04:08 09:08:15 51° 100° (E) 09:12:21 437.475
SEEDS 23 Mar 09:04:52 09:08:41 34° 97° (E) 09:12:30 437.485
UWE-3 23 Mar 09:17:50 09:21:05 20° 92° (E) 09:24:15 435.000/436.395/437.385
DOVE 4 23 Mar 09:18:07 09:21:37 18° 298° (WNW) 09:25:06 437.250
PRISM 23 Mar 09:24:59 09:27:40 17° 65° (ENE) 09:30:21 437.425
CUTE-I 23 Mar 09:36:50 09:40:38 20° 299° (WNW) 09:44:24 437.470
STRAND 1 23 Mar 09:39:23 09:42:38 17° 269° (W) 09:45:54 437.568
CUBEBUG 2 23 Mar 09:42:33 09:47:01 62° 100° (E) 09:51:17 437.445
XW-2A 23 Mar 09:46:47 09:49:47 29° 289° (WNW) 09:52:44 145.665 - 145.685
FO-29 23 Mar 09:47:57 09:53:30 22° 58° (ENE) 09:58:51 435.910
NO-84 23 Mar 10:04:21 10:07:02 37° 326° (NW) 10:09:46 435.350 FM
Oscar 11 23 Mar 10:06:30 10:10:20 31° 96° (E) 10:14:08 .
ZACube-1 23 Mar 10:06:46 10:10:47 39° 97° (E) 10:14:43 437.345
HO-68 23 Mar 10:06:48 10:13:50 62° 291° (WNW) 10:20:52 435.675
BEESAT 3 23 Mar 10:22:33 10:25:39 22° 247° (WSW) 10:28:44 437.485
TIGRISAT 23 Mar 10:28:47 10:33:10 40° 70° (ENE) 10:37:33 435.000
BEESAT 2 23 Mar 10:29:00 10:32:54 45° 242° (WSW) 10:36:44 435.950
AAUSAT CUBESAT 2 23 Mar 10:36:07 10:40:04 44° 288° (WNW) 10:44:01 437.432
AO-73 23 Mar 10:37:18 10:41:34 80° 101° (E) 10:45:45 145.935
UNISAT 6 23 Mar 10:37:34 10:42:07 53° 73° (ENE) 10:46:42 437.425
YUBILEINY 23 Mar 10:39:11 10:47:08 38° 289° (WNW) 10:55:08 435.215
SEEDS 23 Mar 10:41:01 10:44:10 21° 293° (WNW) 10:47:19 437.485
CUTE 1.7 + AOD 2 23 Mar 10:41:16 10:43:40 15° 296° (WNW) 10:46:03 437.475
UWE-3 23 Mar 10:53:39 10:57:40 36° 290° (WNW) 11:01:33 435.000/436.395/437.385
DELFI C3 23 Mar 10:54:20 10:57:53 31° 96° (E) 11:01:26 145.870
PRISM 23 Mar 10:58:48 11:02:38 41° 261° (W) 11:06:31 437.425
PCSat 23 Mar 11:08:03 11:13:04 40° 112° (ESE) 11:18:07 145.827
CUBEBUG 2 23 Mar 11:20:46 11:23:03 14° 298° (WNW) 11:25:18 437.445
FO-29 23 Mar 11:29:46 11:37:40 88° 253° (WSW) 11:45:13 435.910
Oscar 11 23 Mar 11:42:50 11:46:19 24° 293° (WNW) 11:49:47 .
ZACube-1 23 Mar 11:43:46 11:46:47 19° 295° (WNW) 11:49:44 437.345
NO-84 23 Mar 11:44:50 11:45:19 10° 347° (NNW) 11:45:49 435.350 FM
NANOSAT C BR1 23 Mar 11:52:31 11:56:00 25° 67° (ENE) 11:59:31 145.865
EO-79 23 Mar 11:54:29 11:58:09 28° 68° (ENE) 12:01:51 145.935-145.965
HO-68 23 Mar 11:57:13 12:00:09 13° 311° (NW) 12:03:06 435.675
LO-87 23 Mar 12:02:47 12:05:39 21° 95° (E) 12:08:30 145.935 - 145.965
AIST 2D 23 Mar 12:05:07 12:08:37 59° 75° (ENE) 12:12:07 435.315
TIGRISAT 23 Mar 12:06:19 12:09:58 22° 267° (W) 12:13:36 435.000
UNISAT 6 23 Mar 12:16:07 12:19:07 17° 269° (W) 12:22:08 437.425
AO-73 23 Mar 12:16:39 12:17:07 10° 300° (WNW) 12:17:35 145.935
POLYITAN 1 23 Mar 12:20:50 12:25:02 55° 73° (ENE) 12:29:14 437.675
QB50P2 23 Mar 12:25:13 12:29:28 67° 74° (ENE) 12:33:44 145.880/145.840
DELFI C3 23 Mar 12:29:29 12:32:30 21° 293° (WNW) 12:35:31 145.870
DUCHIFAT 1 23 Mar 12:43:07 12:47:21 81° 78° (ENE) 12:51:38 145.980
PCSat 23 Mar 12:51:41 12:56:32 33° 311° (NW) 13:01:25 145.827
SPROUT 23 Mar 12:56:47 12:58:34 12° 90° (E) 13:00:21 437.525
Oscar 19 23 Mar 12:58:01 13:01:07 16° 60° (ENE) 13:04:13 437.125/150
BUGSAT 1 23 Mar 13:14:12 13:18:21 60° 74° (ENE) 13:22:34 437.445
FO-29 23 Mar 13:18:26 13:23:27 18° 272° (W) 13:28:21 435.910
50 SAT 23 Mar 13:18:43 13:20:24 13° 92° (E) 13:22:05 437.505
VELOX 1 23 Mar 13:19:24 13:23:09 26° 95° (E) 13:26:52 145.980
RS-15 23 Mar 13:25:15 13:35:51 39° 106° (ESE) 13:46:45 29.354- 29.394
ESTCUBE 1 23 Mar 13:26:58 13:31:29 81° 284° (WNW) 13:35:59 437.505/2401.250
NANOSAT C BR1 23 Mar 13:27:52 13:31:36 29° 264° (W) 13:35:22 145.865
EO-79 23 Mar 13:30:17 13:33:52 26° 265° (W) 13:37:29 145.935-145.965
LO-87 23 Mar 13:36:02 13:39:04 25° 290° (WNW) 13:42:04 145.935 - 145.965
UKube-1 23 Mar 13:56:33 13:59:36 18° 93° (E) 14:02:37 .
POLYITAN 1 23 Mar 13:59:00 14:01:08 13° 269° (W) 14:03:18 437.675
QB50P2 23 Mar 14:04:27 14:05:41 11° 271° (W) 14:06:55 145.880/145.840
Gurwin Techsat 1B 23 Mar 14:20:23 14:25:30 51° 71° (ENE) 14:30:40 435.225
SPROUT 23 Mar 14:30:38 14:34:52 60° 286° (WNW) 14:39:04 437.525
Oscar 19 23 Mar 14:34:46 14:39:51 69° 258° (WSW) 14:44:59 437.125/150
ITAMSAT 1 23 Mar 14:37:33 14:40:14 14° 58° (ENE) 14:42:56 435.822/435.867
DX 1 23 Mar 14:44:05 14:48:30 86° 100° (E) 14:52:54 434.975-435.025
50 SAT 23 Mar 14:50:21 14:53:37 37° 288° (WNW) 14:56:52 437.505
BUGSAT 1 23 Mar 14:52:24 14:54:06 12° 270° (W) 14:55:48 437.445
VELOX 1 23 Mar 14:55:39 14:59:35 31° 292° (WNW) 15:03:31 145.980
NO-84 23 Mar 14:59:52 15:02:34 25° 30° (NNE) 15:05:28 435.350 FM
AO-7 23 Mar 15:09:48 15:17:15 38° 59° (ENE) 15:24:42 .
UKube-1 23 Mar 15:31:42 15:35:47 41° 289° (WNW) 15:39:51 .
RS-15 23 Mar 15:35:38 15:47:38 68° 309° (NW) 16:00:02 29.354- 29.394
BEESAT 23 Mar 15:52:04 15:55:57 24° 95° (E) 15:59:49 436.000
SO-50 23 Mar 15:52:41 15:56:10 21° 112° (ESE) 15:59:37 436.795
Gurwin Techsat 1B 23 Mar 16:01:47 16:05:44 21° 268° (W) 16:09:42 435.225
ITUPSAT 1 23 Mar 16:05:36 16:09:54 32° 97° (E) 16:14:10 437.325
ITAMSAT 1 23 Mar 16:13:45 16:18:59 84° 256° (WSW) 16:24:15 435.822/435.867
DX 1 23 Mar 16:23:10 16:23:59 10° 301° (WNW) 16:24:49 434.975-435.025
NO-84 23 Mar 16:37:04 16:40:14 42° 225° (SW) 16:43:40 435.350 FM
MOZHAYETS 4 23 Mar 16:39:49 16:43:53 31° 96° (E) 16:47:54
AO-7 23 Mar 17:01:41 17:09:45 53° 258° (WSW) 17:17:52 .
CUBESAT XI-V 23 Mar 17:23:37 17:26:23 15° 91° (E) 17:29:08 437.345
BEESAT 23 Mar 17:29:27 17:33:48 36° 292° (WNW) 17:38:08 436.000
SO-50 23 Mar 17:31:49 17:36:20 48° 309° (NW) 17:40:47 436.795
STARS 23 Mar 17:34:56 17:35:53 11° 89° (E) 17:36:49 437.465
CUTE-I 23 Mar 17:41:14 17:44:14 15° 59° (ENE) 17:47:14 437.470
ITUPSAT 1 23 Mar 17:43:35 17:47:36 28° 294° (WNW) 17:51:38 437.325
XW-2C 23 Mar 17:47:11 17:47:43 10° 63° (ENE) 17:48:15 145.795 - 145.815
RS-15 23 Mar 17:52:42 18:03:03 30° 339° (NNW) 18:13:31 29.354- 29.394
MOZHAYETS 4 23 Mar 18:17:07 18:20:56 27° 293° (WNW) 18:24:43
KKS-1 23 Mar 18:22:29 18:27:00 82° 104° (ESE) 18:31:29 437.445
LilacSat-2 23 Mar 18:33:26 18:36:58 36° 72° (ENE) 18:40:31 437.200
XW-2F 23 Mar 18:38:13 18:41:45 38° 72° (ENE) 18:45:18 145.980 - 146.000
O/OREOS (USA 219) 23 Mar 18:39:29 18:43:57 67° 110° (ESE) 18:48:30 437.305
DOVE 4 23 Mar 18:45:04 18:49:36 67° 74° (ENE) 18:54:29 437.250
HO-68 23 Mar 18:50:17 18:55:33 23° 56° (NE) 19:00:48 435.675
YUBILEINY 23 Mar 18:51:24 18:58:17 25° 65° (ENE) 19:05:08 435.215
CUBESAT XI-V 23 Mar 18:59:32 19:04:04 55° 287° (WNW) 19:08:36 437.345
XW-2D 23 Mar 19:01:40 19:05:29 81° 76° (ENE) 19:09:18 145.860 - 145.880
M-CUBED/EXP-1 PRIME 23 Mar 19:03:15 19:05:52 15° 96° (E) 19:08:29 437.505
XW-2B 23 Mar 19:07:30 19:11:20 88° 254° (WSW) 19:15:10 145.730 - 145.750
STARS 23 Mar 19:08:17 19:12:43 74° 286° (WNW) 19:17:07 437.465
NUDT-PHONESAT 23 Mar 19:13:27 19:17:12 88° 80° (E) 19:20:58 437.300
KAITUO 1B 23 Mar 19:16:25 19:20:11 85° 258° (WSW) 19:23:58 145.475/437.950
SO-50 23 Mar 19:17:23 19:17:53 10° 330° (NNW) 19:18:24 436.795
XW-2C 23 Mar 19:17:35 19:21:22 65° 259° (WSW) 19:25:11 145.795 - 145.815
CUTE-I 23 Mar 19:18:12 19:23:35 81° 257° (WSW) 19:28:59 437.470
AAUSAT CUBESAT 2 23 Mar 19:53:53 19:55:27 12° 62° (ENE) 19:57:00 437.432
PCSat 23 Mar 19:54:54 20:00:01 39° 52° (NE) 20:05:04 145.827
CUTE 1.7 + AOD 2 23 Mar 19:57:15 20:01:10 39° 71° (ENE) 20:05:05 437.475
SEEDS 23 Mar 19:57:18 20:00:46 26° 68° (ENE) 20:04:13 437.485
KKS-1 23 Mar 20:01:26 20:02:53 11° 300° (WNW) 20:04:21 437.445
STRAND 1 23 Mar 20:08:42 20:12:21 19° 92° (E) 20:15:59 437.568
LilacSat-2 23 Mar 20:08:57 20:11:23 16° 268° (W) 20:13:49 437.200
RS-15 23 Mar 20:10:52 20:20:58 27° 14° (NNE) 20:30:52 29.354- 29.394
XW-2F 23 Mar 20:13:48 20:16:03 15° 268° (W) 20:18:19 145.980 - 146.000
UWE-3 23 Mar 20:15:12 20:18:39 21° 65° (ENE) 20:22:04 435.000/436.395/437.385
XW-2A 23 Mar 20:17:59 20:21:26 86° 257° (WSW) 20:24:55 145.665 - 145.685
O/OREOS (USA 219) 23 Mar 20:21:12 20:23:52 15° 309° (NW) 20:26:33 437.305
DOVE 4 23 Mar 20:25:44 20:27:53 13° 273° (W) 20:30:04 437.250
HO-68 23 Mar 20:35:22 20:42:31 78° 255° (WSW) 20:49:43 435.675
M-CUBED/EXP-1 PRIME 23 Mar 20:36:04 20:40:36 64° 291° (WNW) 20:45:14 437.505
CUBEBUG 2 23 Mar 20:40:23 20:45:02 57° 73° (ENE) 20:49:42 437.445
YUBILEINY 23 Mar 20:47:18 20:55:58 74° 266° (W) 21:04:37 435.215
Oscar 11 23 Mar 21:01:58 21:05:34 26° 68° (ENE) 21:09:11 .
ZACube-1 23 Mar 21:02:40 21:06:49 36° 70° (ENE) 21:10:57 437.345
AAUSAT CUBESAT 2 23 Mar 21:26:19 21:30:22 64° 259° (WSW) 21:34:28 437.432
AO-73 23 Mar 21:32:37 21:37:07 67° 75° (ENE) 21:41:36 145.935
SEEDS 23 Mar 21:32:50 21:36:22 27° 265° (W) 21:39:55 437.485
CUTE 1.7 + AOD 2 23 Mar 21:34:14 21:37:08 18° 268° (W) 21:40:04 437.475
AO-85 23 Mar 21:35:56 21:37:50 13° 110° (ESE) 21:39:41 145.980
PCSat 23 Mar 21:38:30 21:43:18 32° 250° (WSW) 21:48:03 145.827
DELFI C3 23 Mar 21:40:58 21:43:50 20° 67° (ENE) 21:46:44 145.870
STRAND 1 23 Mar 21:46:51 21:51:49 52° 289° (WNW) 21:56:45 437.568
UWE-3 23 Mar 21:50:19 21:54:47 44° 262° (W) 21:59:14 435.000/436.395/437.385
CUBEBUG 2 23 Mar 22:19:04 22:21:58 16° 270° (W) 22:24:53 437.445
RS-15 23 Mar 22:24:52 22:37:02 57° 46° (NE) 22:48:39 29.354- 29.394
HO-68 23 Mar 22:28:16 22:31:20 13° 273° (W) 22:34:24 435.675
Oscar 11 23 Mar 22:37:53 22:41:36 28° 264° (W) 22:45:22 .
ZACube-1 23 Mar 22:39:30 22:43:09 23° 266° (W) 22:46:46 437.345
PRISM 23 Mar 22:39:30 22:42:53 24° 95° (E) 22:46:15 437.425
LO-87 23 Mar 22:41:41 22:42:32 11° 63° (ENE) 22:43:23 145.935 - 145.965
YUBILEINY 23 Mar 22:47:16 22:51:07 14° 286° (WNW) 22:54:59 435.215
ISS 23 Mar 22:50:19 22:53:23 40° 140° (SE) 22:56:30 437.550
ESTCUBE 1 23 Mar 22:53:53 22:55:08 11° 60° (ENE) 22:56:23 437.505/2401.250
Tancredo 1 23 Mar 23:04:27 23:07:35 62° 143° (SE) 23:10:45 437.200
AO-73 23 Mar 23:11:53 23:13:46 12° 271° (W) 23:15:39 145.935
AO-85 23 Mar 23:13:23 23:17:46 69° 304° (NW) 23:21:54 145.980
DELFI C3 23 Mar 23:14:56 23:18:26 31° 263° (W) 23:21:58 145.870
SPROUT 23 Mar 23:51:39 23:53:05 11° 61° (ENE) 23:54:31 437.525
TIGRISAT 23 Mar 23:55:56 00:00:26 78° 103° (ESE) 00:04:46 435.000
UNISAT 6 24 Mar 00:05:10 00:09:39 78° 284° (WNW) 00:13:59 437.425
BEESAT 3 24 Mar 00:11:58 00:15:44 48° 118° (ESE) 00:19:34 437.485
LO-87 24 Mar 00:11:59 00:15:30 54° 260° (W) 00:19:04 145.935 - 145.965
QB50P2 24 Mar 00:12:40 00:12:57 10° 89° (E) 00:13:13 145.880/145.840
PRISM 24 Mar 00:14:33 00:18:09 29° 291° (WNW) 00:21:46 437.425
VELOX 1 24 Mar 00:17:22 00:20:59 25° 67° (ENE) 00:24:36 145.980
BEESAT 2 24 Mar 00:21:14 00:24:26 24° 113° (ESE) 00:27:41 435.950
SO-50 24 Mar 00:22:22 00:26:09 25° 44° (NE) 00:29:54 436.795
FO-29 24 Mar 00:25:09 00:31:25 80° 103° (ESE) 00:36:57 435.910
ESTCUBE 1 24 Mar 00:26:47 00:31:16 83° 259° (W) 00:35:46 437.505/2401.250
ISS 24 Mar 00:26:55 00:29:55 32° 337° (NNW) 00:32:56 437.550
DUCHIFAT 1 24 Mar 00:28:27 00:30:04 12° 90° (E) 00:31:41 145.980
